Miscellaneous Local Product
Issued by NWS Hastings, NE

Home | Current Version | Previous Version | Graphics & Text | Print | Product List | Glossary On
Versions: 1 2 3 4 5 6 7 8 9 10 11 12 13 14 15 16 17 18 19 20 21 22 23 24 25 26 27 28 29 30 31 32 33 34 35 36 37 38 39 40 41 42 43 44 45 46 47 48 49 50
000
AXUS43 KGID 170402
MISGRI

GID CWA HOURLY WEATHER ROUNDUP
NATIONAL WEATHER SERVICE HASTINGS NE
1000 PM CST TUE JAN 16 2018

NOTE: "FAIR" INDICATES FEW OR NO CLOUDS BELOW 12,000 FEET WITH NO
SIGNIFICANT WEATHER AND/OR OBSTRUCTIONS TO VISIBILITY.

...SOUTH CENTRAL NEBRASKA...

CITY           SKY/WX    TMP DP  RH WIND       PRES   REMARKS
GRAND ISLAND   CLOUDY     4   0  83 S10       30.57F WCI -11
KEARNEY        CLOUDY     1  -4  79 S7        30.55F WCI -12
HASTINGS       CLOUDY     4  -2  76 S8        30.57F WCI  -9
ORD            CLEAR      4  -2  76 CALM      30.50F
YORK           CLOUDY     1   0  92 CALM      30.60F
AURORA         CLOUDY     2  -3  80 S7        30.58S WCI -10
LEXINGTON      CLEAR      8   2  73 S7        30.49F WCI  -3
HOLDREGE       CLOUDY     6  -1  75 CALM      30.53S
HEBRON         CLOUDY    -3  -6  85 CALM      30.65F

...NEBRASKA PANHANDLE...

CITY           SKY/WX    TMP DP  RH WIND       PRES   REMARKS
CHADRON        CLEAR      9   3  77 SW3       30.26F
ALLIANCE       CLEAR      8   1  73 S12       30.26F WCI  -7
SCOTTSBLUFF    CLEAR     10   3  73 E5        30.27F WCI   2
SIDNEY         CLEAR     12   3  67 SW10      30.29F WCI  -1

...WESTERN AND NORTH CENTRAL NEBRASKA...

CITY           SKY/WX    TMP DP  RH WIND       PRES   REMARKS
VALENTINE      CLEAR     10   0  63 SW7       30.35F WCI  -1
AINSWORTH      CLEAR     10   1  69 SW15      30.38S WCI  -7
ONEILL         CLEAR      5  -1  77 S7        30.47F WCI  -7
BROKEN BOW     CLEAR      1  -5  75 S5        30.46F WCI  -9
IMPERIAL       CLEAR      7  -2  66 S6        30.39F WCI  -3
NORTH PLATTE   CLEAR     10  -1  61 CALM      30.43F
MCCOOK         CLEAR      7  -1  70 S6        30.48F WCI  -3

...EASTERN NEBRASKA...

CITY           SKY/WX    TMP DP  RH WIND       PRES   REMARKS
NORFOLK        CLOUDY     4  -1  80 S12       30.55F WCI -12
SO SIOUX CITY  CLOUDY    -1  -6  79 SE5       30.62F WCI -11
TEKAMAH        CLOUDY    -4  -9  79 S5        30.65F WCI -15
COLUMBUS       CLOUDY     5   0  79 S6        30.61F WCI  -6
ALBION         CLOUDY     4  -1  78 CALM      30.55F
OMAHA EPPLEY   CLOUDY     3  -1  83 E5        30.67F WCI  -6
OFFUTT AFB     CLOUDY    -4  -9  80 CALM      30.66F
MILLARD        CLOUDY     5   2  86 CALM      30.66F
LINCOLN        CLOUDY     4   0  83 CALM      30.66F
NEBRASKA CITY  CLOUDY     3   1  91 SW6       30.66F WCI  -8
BEATRICE       CLOUDY     2  -1  86 CALM      30.66F
FALLS CITY     CLOUDY     0  -4  83 CALM      30.69F

...NORTHERN KANSAS...

CITY           SKY/WX    TMP DP  RH WIND       PRES   REMARKS
GOODLAND       CLEAR      9  -3  58 S12       30.39F WCI  -6
HILL CITY      CLOUDY     7  -1  70 SW3       30.56S
NORTON         CLEAR      9   0  66 SE5       30.52  WCI   0
PHILLIPSBURG   CLEAR      3  -2  78 E3        30.60S
SMITH CENTER     N/A      3   3 100 SE6       30.62F WCI  -8
BELOIT         CLEAR      5   1  85 CALM      30.67R
HAYS           CLOUDY     4  -1  80 S6        30.61S WCI  -7
RUSSELL        CLOUDY     3  -1  83 S7        30.61S WCI  -9
CONCORDIA      CLOUDY     4  -1  80 S6        30.65S WCI  -7
SALINA         CLOUDY     5   1  83 S5        30.69S WCI  -4
TOPEKA         CLOUDY     1  -2  87 CALM      30.72S



USA.gov is the U.S. government's official web portal to all federal, state and local government web resources and services.